WJA139 CYYC-CYVR

Flight info

Callsign WJA139
Flight time 1h 3m
Altitude 34000
Route BOTAG Q894 BOOTH CANUC6
Aircraft B738/M-L/C

Departure

Time 2026-05-06 01:38
Airport Calgary International Airport (CYYC)

Arrival

Time 2026-05-06 02:41
Airport Vancouver International Airport (CYVR)
Time Latitude Longitude Altitude Speed Heading
2026-05-06 00:59 51.12869 -114.00925 3560 ft 0 kts 96°
2026-05-06 01:19 51.12872 -114.00937 3560 ft 2 kts 124°
2026-05-06 01:20 51.12878 -114.00956 3560 ft 2 kts 94°
2026-05-06 01:20 51.12878 -114.00980 3559 ft 2 kts 96°
2026-05-06 01:20 51.12880 -114.01003 3559 ft 2 kts 96°
2026-05-06 01:20 51.12885 -114.01026 3559 ft 2 kts 134°
2026-05-06 01:21 51.12898 -114.01039 3559 ft 2 kts 166°
2026-05-06 01:21 51.12913 -114.01039 3559 ft 1 kts 200°
2026-05-06 01:21 51.12918 -114.01035 3559 ft 1 kts 210°
2026-05-06 01:21 51.12921 -114.01032 3559 ft 0 kts 207°
2026-05-06 01:24 51.12905 -114.01045 3559 ft 7 kts 206°
2026-05-06 01:24 51.12845 -114.01110 3557 ft 12 kts 223°
2026-05-06 01:24 51.12775 -114.01220 3555 ft 14 kts 223°
2026-05-06 01:24 51.12711 -114.01310 3554 ft 12 kts 221°
2026-05-06 01:25 51.12640 -114.01409 3552 ft 15 kts 221°
2026-05-06 01:25 51.12562 -114.01518 3552 ft 10 kts 219°
2026-05-06 01:25 51.12487 -114.01569 3551 ft 14 kts 181°
2026-05-06 01:25 51.12383 -114.01570 3551 ft 15 kts 181°
2026-05-06 01:26 51.12279 -114.01569 3550 ft 13 kts 179°
2026-05-06 01:26 51.12186 -114.01573 3550 ft 12 kts 187°
2026-05-06 01:26 51.12094 -114.01627 3550 ft 14 kts 213°
2026-05-06 01:26 51.12009 -114.01705 3550 ft 15 kts 208°
2026-05-06 01:27 51.11934 -114.01771 3551 ft 8 kts 209°
2026-05-06 01:27 51.11878 -114.01799 3551 ft 6 kts 182°
2026-05-06 01:27 51.11871 -114.01799 3551 ft 0 kts 180°
2026-05-06 01:28 51.11870 -114.01799 3551 ft 0 kts 180°
2026-05-06 01:29 51.11853 -114.01799 3551 ft 4 kts 179°
2026-05-06 01:29 51.11811 -114.01798 3551 ft 7 kts 179°
2026-05-06 01:29 51.11743 -114.01798 3551 ft 11 kts 180°
2026-05-06 01:29 51.11648 -114.01798 3551 ft 15 kts 180°
2026-05-06 01:30 51.11524 -114.01799 3550 ft 19 kts 180°
2026-05-06 01:30 51.11373 -114.01799 3550 ft 23 kts 179°
2026-05-06 01:30 51.11221 -114.01794 3549 ft 17 kts 180°
2026-05-06 01:30 51.11094 -114.01798 3548 ft 18 kts 180°
2026-05-06 01:31 51.10960 -114.01798 3547 ft 20 kts 180°
2026-05-06 01:31 51.10817 -114.01798 3546 ft 19 kts 180°
2026-05-06 01:31 51.10683 -114.01799 3545 ft 16 kts 180°
2026-05-06 01:31 51.10574 -114.01800 3545 ft 13 kts 180°
2026-05-06 01:32 51.10474 -114.01798 3545 ft 15 kts 180°
2026-05-06 01:32 51.10391 -114.01799 3545 ft 9 kts 180°
2026-05-06 01:32 51.10315 -114.01800 3545 ft 11 kts 180°
2026-05-06 01:32 51.10229 -114.01800 3544 ft 12 kts 180°
2026-05-06 01:33 51.10142 -114.01800 3544 ft 13 kts 180°
2026-05-06 01:33 51.10042 -114.01800 3544 ft 15 kts 180°
2026-05-06 01:33 51.09936 -114.01800 3544 ft 15 kts 180°
2026-05-06 01:33 51.09827 -114.01800 3544 ft 13 kts 180°
2026-05-06 01:34 51.09773 -114.01800 3544 ft 6 kts 180°
2026-05-06 01:34 51.09719 -114.01811 3544 ft 8 kts 206°
2026-05-06 01:34 51.09694 -114.01903 3543 ft 10 kts 269°
2026-05-06 01:34 51.09693 -114.01945 3543 ft 0 kts 269°
2026-05-06 01:35 51.09693 -114.01960 3543 ft 4 kts 269°
2026-05-06 01:35 51.09693 -114.02053 3542 ft 12 kts 270°
2026-05-06 01:36 51.09750 -114.02136 3542 ft 11 kts 359°
2026-05-06 01:36 51.09766 -114.02136 3542 ft 0 kts 359°
2026-05-06 01:37 51.09771 -114.02136 3542 ft 5 kts 359°
2026-05-06 01:37 51.10098 -114.02139 3542 ft 90 kts
2026-05-06 01:37 51.10991 -114.02135 3546 ft 164 kts
2026-05-06 01:37 51.12252 -114.02181 4103 ft 189 kts 359°
2026-05-06 01:38 51.13570 -114.02275 5325 ft 182 kts 358°
2026-05-06 01:38 51.14908 -114.02352 6289 ft 190 kts 358°
2026-05-06 01:38 51.16363 -114.02834 7102 ft 209 kts 338°
2026-05-06 01:38 51.18008 -114.04371 6892 ft 280 kts 321°
2026-05-06 01:39 51.19308 -114.07377 6661 ft 315 kts 288°
2026-05-06 01:39 51.19342 -114.11324 7016 ft 316 kts 256°
2026-05-06 01:39 51.18241 -114.14681 7000 ft 318 kts 234°
2026-05-06 01:39 51.16967 -114.17858 6996 ft 311 kts 246°
2026-05-06 01:40 51.16224 -114.21410 7000 ft 293 kts 257°
2026-05-06 01:40 51.15691 -114.24744 7003 ft 279 kts 256°
2026-05-06 01:40 51.15057 -114.28100 7006 ft 277 kts 252°
2026-05-06 01:40 51.14280 -114.31562 7365 ft 298 kts 251°
2026-05-06 01:41 51.13466 -114.34884 8820 ft 288 kts 251°
2026-05-06 01:41 51.12670 -114.38077 10147 ft 281 kts 252°
2026-05-06 01:41 51.11832 -114.41455 11125 ft 288 kts 253°
2026-05-06 01:41 51.10975 -114.44938 12081 ft 296 kts 255°
2026-05-06 01:42 51.10104 -114.48479 13019 ft 303 kts 256°
2026-05-06 01:42 51.09321 -114.51646 13839 ft 309 kts 257°
2026-05-06 01:42 51.08402 -114.55355 14753 ft 315 kts 258°
2026-05-06 01:42 51.07453 -114.59201 15576 ft 325 kts 258°
2026-05-06 01:43 51.06591 -114.63081 16480 ft 326 kts 263°
2026-05-06 01:43 51.05953 -114.66885 17267 ft 329 kts 266°
2026-05-06 01:43 51.05375 -114.70846 18090 ft 333 kts 267°
2026-05-06 01:43 51.04785 -114.74868 19227 ft 326 kts 266°
2026-05-06 01:44 51.04179 -114.78822 20268 ft 322 kts 266°
2026-05-06 01:44 51.03549 -114.82828 21171 ft 322 kts 266°
2026-05-06 01:44 51.02915 -114.86809 21873 ft 327 kts 266°
2026-05-06 01:44 51.02265 -114.90881 22545 ft 332 kts 266°
2026-05-06 01:45 51.01587 -114.95079 23280 ft 335 kts 266°
2026-05-06 01:45 51.00898 -114.99328 23962 ft 338 kts 267°
2026-05-06 01:45 51.00210 -115.03548 24696 ft 339 kts 267°
2026-05-06 01:45 50.99503 -115.07883 25294 ft 344 kts 267°
2026-05-06 01:46 50.98823 -115.12056 25948 ft 346 kts 267°
2026-05-06 01:46 50.98124 -115.16318 26583 ft 348 kts 268°
2026-05-06 01:46 50.97424 -115.20596 27110 ft 352 kts 267°
2026-05-06 01:46 50.96700 -115.24992 27769 ft 353 kts 268°
2026-05-06 01:47 50.95988 -115.29300 28305 ft 356 kts 268°
2026-05-06 01:47 50.95248 -115.33796 28785 ft 360 kts 268°
2026-05-06 01:47 50.94506 -115.38281 29315 ft 363 kts 268°
2026-05-06 01:47 50.93734 -115.42917 29854 ft 365 kts 268°
2026-05-06 01:48 50.92970 -115.47492 30377 ft 368 kts 268°
2026-05-06 01:48 50.92189 -115.52165 30887 ft 371 kts 268°
2026-05-06 01:48 50.91423 -115.56737 31362 ft 373 kts 268°
2026-05-06 01:48 50.90649 -115.61340 31792 ft 377 kts 268°
2026-05-06 01:49 50.89898 -115.65798 32244 ft 379 kts 267°
2026-05-06 01:49 50.89161 -115.70149 32673 ft 381 kts 267°
2026-05-06 01:49 50.88388 -115.74702 33096 ft 382 kts 267°
2026-05-06 01:49 50.87611 -115.79281 33368 ft 388 kts 267°
2026-05-06 01:50 50.86850 -115.83742 33899 ft 386 kts 267°
2026-05-06 01:50 50.86068 -115.88329 34052 ft 393 kts 267°
2026-05-06 01:50 50.84482 -115.97685 34048 ft 413 kts 266°
2026-05-06 01:51 50.82827 -116.07362 34048 ft 433 kts 266°
2026-05-06 01:51 50.81098 -116.17358 34059 ft 452 kts 265°
2026-05-06 01:52 50.79306 -116.27624 34053 ft 466 kts 264°
2026-05-06 01:52 50.77390 -116.38402 34054 ft 462 kts 264°
2026-05-06 01:53 50.75376 -116.49647 34044 ft 464 kts 264°
2026-05-06 01:53 50.73250 -116.60777 34045 ft 465 kts 263°
2026-05-06 01:54 50.71219 -116.71069 34050 ft 465 kts 262°
2026-05-06 01:54 50.69150 -116.81548 34056 ft 465 kts 262°
2026-05-06 01:55 50.67110 -116.91882 34056 ft 465 kts 262°
2026-05-06 01:55 50.65074 -117.02177 34057 ft 466 kts 262°
2026-05-06 01:56 50.63023 -117.12506 34060 ft 465 kts 262°
2026-05-06 01:56 50.60991 -117.22677 34050 ft 464 kts 261°
2026-05-06 01:57 50.58939 -117.32886 34046 ft 463 kts 261°
2026-05-06 01:57 50.56881 -117.43096 34044 ft 462 kts 261°
2026-05-06 01:58 50.54856 -117.53086 34046 ft 464 kts 261°
2026-05-06 01:58 50.52787 -117.63210 34043 ft 462 kts 261°
2026-05-06 01:59 50.50750 -117.73144 34018 ft 464 kts 260°
2026-05-06 01:59 50.48499 -117.84058 33996 ft 461 kts 260°
2026-05-06 02:00 50.46204 -117.95122 33979 ft 462 kts 260°
2026-05-06 02:00 50.43882 -118.06268 33990 ft 463 kts 259°
2026-05-06 02:01 50.41715 -118.16610 34018 ft 459 kts 259°
2026-05-06 02:01 50.39547 -118.26916 34038 ft 462 kts 259°
2026-05-06 02:02 50.37377 -118.37172 34025 ft 461 kts 259°
2026-05-06 02:02 50.35209 -118.47361 34002 ft 460 kts 259°
2026-05-06 02:03 50.33002 -118.57687 33983 ft 461 kts 259°
2026-05-06 02:03 50.30839 -118.67760 33973 ft 461 kts 258°
2026-05-06 02:04 50.28585 -118.78204 33965 ft 461 kts 258°
2026-05-06 02:04 50.26388 -118.88325 33976 ft 461 kts 258°
2026-05-06 02:05 50.24026 -118.99160 33990 ft 460 kts 258°
2026-05-06 02:05 50.21951 -119.08636 33991 ft 460 kts 257°
2026-05-06 02:06 50.19605 -119.19288 33979 ft 461 kts 257°
2026-05-06 02:06 50.17267 -119.29852 33979 ft 461 kts 257°
2026-05-06 02:07 50.15052 -119.39805 33980 ft 462 kts 257°
2026-05-06 02:07 50.12831 -119.49748 33961 ft 462 kts 257°
2026-05-06 02:08 50.10593 -119.59709 33982 ft 461 kts 257°
2026-05-06 02:08 50.08345 -119.69676 34023 ft 462 kts 256°
2026-05-06 02:09 50.06030 -119.79879 34048 ft 459 kts 256°
2026-05-06 02:09 50.03755 -119.89865 34052 ft 461 kts 256°
2026-05-06 02:10 50.01480 -119.99813 34048 ft 460 kts 256°
2026-05-06 02:10 49.99101 -120.10164 34047 ft 463 kts 256°
2026-05-06 02:11 49.96799 -120.20124 34042 ft 461 kts 256°
2026-05-06 02:11 49.94477 -120.30118 34034 ft 460 kts 256°
2026-05-06 02:12 49.92131 -120.40178 34029 ft 461 kts 256°
2026-05-06 02:12 49.89807 -120.50095 34012 ft 459 kts 256°
2026-05-06 02:13 49.88682 -120.54857 34008 ft 443 kts 256°
2026-05-06 02:13 49.87516 -120.59757 34003 ft 425 kts 256°
2026-05-06 02:13 49.86420 -120.64351 33995 ft 408 kts 256°
2026-05-06 02:13 49.85426 -120.68523 33860 ft 396 kts 256°
2026-05-06 02:14 49.84435 -120.72702 33538 ft 389 kts 256°
2026-05-06 02:14 49.83424 -120.76986 33026 ft 391 kts 256°
2026-05-06 02:14 49.82428 -120.81205 32543 ft 387 kts 256°
2026-05-06 02:14 49.81443 -120.85358 32048 ft 385 kts 256°
2026-05-06 02:15 49.80471 -120.89442 31574 ft 382 kts 256°
2026-05-06 02:15 49.79492 -120.93541 31087 ft 379 kts 256°
2026-05-06 02:15 49.78509 -120.97644 30615 ft 375 kts 255°
2026-05-06 02:15 49.77492 -121.01880 30169 ft 370 kts 255°
2026-05-06 02:16 49.76479 -121.06088 29678 ft 367 kts 255°
2026-05-06 02:16 49.75474 -121.10252 29200 ft 363 kts 255°
2026-05-06 02:16 49.74488 -121.14336 28714 ft 362 kts 255°
2026-05-06 02:16 49.73488 -121.18486 28235 ft 370 kts 255°
2026-05-06 02:17 49.72442 -121.22824 27725 ft 373 kts 255°
2026-05-06 02:17 49.71408 -121.27073 27255 ft 368 kts 255°
2026-05-06 02:17 49.70376 -121.31300 26797 ft 363 kts 255°
2026-05-06 02:17 49.69335 -121.35551 26332 ft 358 kts 255°
2026-05-06 02:18 49.68317 -121.39709 25819 ft 354 kts 255°
2026-05-06 02:18 49.67307 -121.43826 25313 ft 351 kts 255°
2026-05-06 02:18 49.66309 -121.47896 24777 ft 348 kts 255°
2026-05-06 02:18 49.65319 -121.51918 24362 ft 342 kts 256°
2026-05-06 02:19 49.63344 -121.59929 23434 ft 333 kts 255°
2026-05-06 02:19 49.62353 -121.63937 22937 ft 329 kts 256°
2026-05-06 02:19 49.61454 -121.67573 22451 ft 332 kts 255°
2026-05-06 02:20 49.59554 -121.75266 21427 ft 333 kts 254°
2026-05-06 02:20 49.58584 -121.79162 20978 ft 333 kts 254°
2026-05-06 02:20 49.57611 -121.83057 20548 ft 328 kts 254°
2026-05-06 02:21 49.56666 -121.86829 20046 ft 325 kts 254°
2026-05-06 02:21 49.55701 -121.90683 19565 ft 321 kts 254°
2026-05-06 02:21 49.54768 -121.94401 19123 ft 317 kts 254°
2026-05-06 02:21 49.53840 -121.98093 18714 ft 312 kts 254°
2026-05-06 02:22 49.52945 -122.01656 18204 ft 311 kts 253°
2026-05-06 02:22 49.51949 -122.05184 17780 ft 310 kts 248°
2026-05-06 02:22 49.50734 -122.08516 17340 ft 310 kts 243°
2026-05-06 02:22 49.49421 -122.11722 16878 ft 308 kts 242°
2026-05-06 02:23 49.48093 -122.14898 16473 ft 304 kts 242°
2026-05-06 02:23 49.46782 -122.18084 16074 ft 300 kts 243°
2026-05-06 02:23 49.45524 -122.21227 15870 ft 305 kts 243°
2026-05-06 02:23 49.44241 -122.24484 15510 ft 311 kts 243°
2026-05-06 02:24 49.42954 -122.27743 15111 ft 309 kts 243°
2026-05-06 02:24 49.41667 -122.30983 14633 ft 307 kts 243°
2026-05-06 02:24 49.40387 -122.34196 14199 ft 304 kts 243°
2026-05-06 02:24 49.39090 -122.37356 13960 ft 299 kts 241°
2026-05-06 02:25 49.37764 -122.40442 13966 ft 304 kts 240°
2026-05-06 02:25 49.36412 -122.43555 13976 ft 306 kts 240°
2026-05-06 02:25 49.35074 -122.46641 13970 ft 304 kts 241°
2026-05-06 02:25 49.33770 -122.49663 13980 ft 304 kts 240°
2026-05-06 02:26 49.32470 -122.52679 13882 ft 301 kts 241°
2026-05-06 02:26 49.31188 -122.55652 13509 ft 297 kts 240°
2026-05-06 02:26 49.29942 -122.58542 13063 ft 297 kts 240°
2026-05-06 02:26 49.28718 -122.61377 12623 ft 295 kts 240°
2026-05-06 02:27 49.27516 -122.64158 12272 ft 293 kts 240°
2026-05-06 02:27 49.26355 -122.66841 11869 ft 293 kts 239°
2026-05-06 02:27 49.25205 -122.69593 11495 ft 290 kts 244°
2026-05-06 02:27 49.24453 -122.72597 11094 ft 282 kts 264°
2026-05-06 02:28 49.24543 -122.75694 10775 ft 275 kts 282°
2026-05-06 02:28 49.24947 -122.78672 10308 ft 275 kts 284°
2026-05-06 02:28 49.25348 -122.81592 9978 ft 271 kts 283°
2026-05-06 02:28 49.25712 -122.84493 9818 ft 262 kts 283°
2026-05-06 02:29 49.26038 -122.87237 9459 ft 264 kts 282°
2026-05-06 02:29 49.26360 -122.90002 9086 ft 263 kts 282°
2026-05-06 02:29 49.26673 -122.92712 8923 ft 258 kts 282°
2026-05-06 02:29 49.26981 -122.95372 8708 ft 257 kts 281°
2026-05-06 02:30 49.27293 -122.98068 8368 ft 256 kts 281°
2026-05-06 02:30 49.27618 -123.00883 8065 ft 253 kts 281°
2026-05-06 02:30 49.27924 -123.03544 7948 ft 242 kts 282°
2026-05-06 02:30 49.28220 -123.06078 7619 ft 243 kts 282°
2026-05-06 02:31 49.28527 -123.08644 7182 ft 247 kts 282°
2026-05-06 02:31 49.28839 -123.11258 6876 ft 244 kts 281°
2026-05-06 02:31 49.29147 -123.13861 6591 ft 241 kts 281°
2026-05-06 02:31 49.29450 -123.16444 6317 ft 238 kts 281°
2026-05-06 02:32 49.29750 -123.19009 6032 ft 235 kts 282°
2026-05-06 02:32 49.30051 -123.21573 5743 ft 233 kts 281°
2026-05-06 02:32 49.30351 -123.24129 5516 ft 228 kts 281°
2026-05-06 02:32 49.30635 -123.26601 5436 ft 223 kts 281°
2026-05-06 02:33 49.30896 -123.28986 5192 ft 224 kts 280°
2026-05-06 02:33 49.31067 -123.30570 5015 ft 223 kts 280°
2026-05-06 02:34 49.31910 -123.38381 4188 ft 223 kts 280°
2026-05-06 02:34 49.32162 -123.40729 3962 ft 221 kts 280°
2026-05-06 02:34 49.32305 -123.43039 3939 ft 221 kts 267°
2026-05-06 02:34 49.31862 -123.45300 3939 ft 224 kts 236°
2026-05-06 02:35 49.30700 -123.46909 3907 ft 226 kts 210°
2026-05-06 02:35 49.29266 -123.47759 3756 ft 223 kts 197°
2026-05-06 02:35 49.27728 -123.48412 3505 ft 228 kts 196°
2026-05-06 02:35 49.26218 -123.49052 3292 ft 226 kts 196°
2026-05-06 02:36 49.24659 -123.49502 3149 ft 221 kts 182°
2026-05-06 02:36 49.23149 -123.48927 2955 ft 213 kts 147°
2026-05-06 02:36 49.22190 -123.47195 2936 ft 197 kts 114°
2026-05-06 02:36 49.21814 -123.45231 2946 ft 192 kts 102°
2026-05-06 02:37 49.21556 -123.43220 2944 ft 192 kts 101°
2026-05-06 02:37 49.21321 -123.41209 2772 ft 193 kts 100°
2026-05-06 02:37 49.21093 -123.39172 2454 ft 193 kts 99°
2026-05-06 02:37 49.20874 -123.37209 2215 ft 183 kts 99°
2026-05-06 02:38 49.20665 -123.35360 1940 ft 171 kts 100°
2026-05-06 02:38 49.20470 -123.33629 1751 ft 156 kts 100°
2026-05-06 02:38 49.20291 -123.32050 1498 ft 144 kts 100°
2026-05-06 02:38 49.20126 -123.30583 1350 ft 141 kts 100°
2026-05-06 02:39 49.19958 -123.29107 1142 ft 141 kts 101°
2026-05-06 02:39 49.19788 -123.27640 949 ft 138 kts 100°
2026-05-06 02:39 49.19620 -123.26192 853 ft 139 kts 100°
2026-05-06 02:39 49.19465 -123.24715 600 ft 140 kts 102°
2026-05-06 02:40 49.19294 -123.23312 375 ft 128 kts 102°
2026-05-06 02:40 49.19149 -123.21970 203 ft 127 kts 102°
2026-05-06 02:40 49.19001 -123.20665 60 ft 125 kts 102°
2026-05-06 02:40 49.18855 -123.19429 8 ft 101 kts 99°
2026-05-06 02:41 49.18778 -123.18736 8 ft 37 kts 99°
2026-05-06 02:41 49.18776 -123.18468 8 ft 18 kts 81°
2026-05-06 02:41 49.18802 -123.18319 8 ft 11 kts 75°
2026-05-06 02:41 49.18824 -123.18207 8 ft 11 kts 69°
2026-05-06 02:42 49.18862 -123.18109 8 ft 10 kts 38°
2026-05-06 02:42 49.18933 -123.18072 8 ft 11 kts 11°
2026-05-06 02:42 49.19015 -123.18051 8 ft 11 kts
2026-05-06 02:42 49.19086 -123.18054 8 ft 8 kts 353°
2026-05-06 02:43 49.19141 -123.18046 8 ft 7 kts 10°
2026-05-06 02:43 49.19173 -123.18037 8 ft 2 kts 10°